This is the latest recevied weather packets stored in our database for station/object N5KJT. If no packets are shown the sender has not sent any weather packets the latest 10 day(s).
| Time | Temp. | Humidity | Pressure | Rain* | Wind** | Luminosity | Snow |
|---|---|---|---|---|---|---|---|
| 1787587817 | 27.22° C | 41% | 1029.3 hPa | 0 mm | - | 801 W/m² | - |
| 1787587517 | 26.67° C | 42% | 1028.8 hPa | 0 mm | - | 804 W/m² | - |
| 1787587217 | 26.67° C | 43% | 1028.8 hPa | 0 mm | - | 836 W/m² | - |
| 1787586917 | 26.11° C | 44% | 1028.7 hPa | 0 mm | - | 731 W/m² | - |
| 1787586617 | 26.11° C | 45% | 1028.7 hPa | 0 mm | - | 736 W/m² | - |
| 1787586317 | 25.56° C | 45% | 1028.3 hPa | 0 mm | - | 758 W/m² | - |
| 1787586017 | 25.56° C | 46% | 1028.7 hPa | 0 mm | - | 754 W/m² | - |
| 1787585717 | 25° C | 48% | 1028.7 hPa | 0 mm | - | 738 W/m² | - |
| 1787585417 | 24.44° C | 50% | 1028.4 hPa | 0 mm | - | 657 W/m² | - |
| 1787585117 | 24.44° C | 51% | 1028.4 hPa | 0 mm | - | 664 W/m² | - |
| 1787584817 | 23.89° C | 53% | 1028.6 hPa | 0 mm | - | 672 W/m² | - |
| 1787584517 | 23.89° C | 53% | 1028.5 hPa | 0 mm | - | 515 W/m² | - |
| 1787584217 | 23.33° C | 55% | 1028.7 hPa | 0 mm | - | 472 W/m² | - |
| 1787583918 | 23.33° C | 56% | 1028.3 hPa | 0 mm | - | 462 W/m² | - |
| 1787583617 | 22.78° C | 59% | 1028.4 hPa | 0 mm | - | 476 W/m² | - |
| 1787583317 | 22.22° C | 60% | 1028.3 hPa | 0 mm | - | 493 W/m² | - |
| 1787583017 | 22.22° C | 61% | 1028.3 hPa | 0 mm | - | 491 W/m² | - |
| 1787582717 | 21.67° C | 63% | 1027.9 hPa | 0 mm | - | 441 W/m² | - |
| 1787582417 | 21.11° C | 65% | 1028.3 hPa | 0 mm | - | 445 W/m² | - |
| 1787582117 | 20.56° C | 65% | 1027.9 hPa | 0 mm | - | 356 W/m² | - |
| 1787581817 | 20.56° C | 66% | 1027.9 hPa | 0 mm | - | 218 W/m² | - |
| 1787581517 | 20.56° C | 67% | 1027.9 hPa | 0 mm | - | 331 W/m² | - |
| 1787581217 | 20° C | 68% | 1027.9 hPa | 0 mm | - | 405 W/m² | - |
| 1787580917 | 19.44° C | 70% | 1027.6 hPa | 0 mm | - | 370 W/m² | - |
| 1787580617 | 18.89° C | 72% | 1027.9 hPa | 0 mm | - | 337 W/m² | - |
* Rain latest hour (hover to see other rain measurements)
** Current wind speed in m/s (hover to see current wind gust speed)